Theta_e
346 343 343 339 340 340 340 341 343 345 345 345 344 342 340 340 340 340 339 341 339 340 342 343 342 342 344 346 348 348 349 348 347 345 342 340 342 342 341 343 339 338 340
348 341 341 340 338 339 340 340 341 343 343 343 343 343 342 341 341 341 339 340 340 339 340 341 342 342 344 345 346 347 347 349 347 343 342 344 343 342 342 343 342 341 342
350 348 340 340 338 342 341 340 341 344 342 342 343 343 344 342 340 341 341 339 339 340 339 340 341 342 343 344 344 343 344 348 348 345 343 344 343 341 341 343 342 342 342
349 347 342 339 339 341 339 338 338 336 339 339 341 344 344 342 339 340 341 340 339 338 340 341 341 341 342 344 343 342 344 346 347 346 344 343 342 341 341 341 343 342 341
349 346 343 340 346 338 337 336 336 337 337 344 341 343 343 339 339 338 341 341 341 340 337 341 341 342 344 344 343 343 342 346 346 345 344 344 342 342 342 342 343 342 341
348 347 344 344 343 338 336 336 337 338 343 341 337 336 339 340 340 341 340 342 341 339 340 339 340 338 343 344 343 341 342 342 345 345 342 343 342 342 342 342 342 341 340
348 346 345 343 343 338 337 339 338 343 341 339 335 334 334 337 339 338 337 340 339 338 339 339 339 346 338 342 342 342 341 342 345 345 343 341 341 339 339 341 341 340 334
348 344 347 344 343 339 339 339 344 338 337 339 333 331 324 331 335 336 338 337 336 337 335 338 339 342 343 339 340 342 341 342 345 344 342 341 340 339 339 340 338 333 329
345 344 346 346 344 341 338 343 342 341 333 337 338 330 322 321 328 332 332 335 335 340 340 339 341 341 342 343 340 341 342 342 343 344 343 342 341 341 342 338 334 332 332
345 348 348 346 345 342 345 343 342 340 339 332 330 332 333 330 323 322 328 332 329 335 338 340 342 341 341 340 342 341 339 340 342 344 343 343 342 341 340 338 337 334 335
346 347 348 347 346 344 345 343 343 343 339 335 331 329 329 328 331 327 323 327 330 332 339 337 342 346 341 340 341 339 337 338 340 341 342 342 343 340 338 335 334 333 331
347 348 347 347 347 345 345 344 343 342 339 334 331 333 327 326 328 328 327 324 325 327 337 340 339 346 343 338 341 335 334 334 333 334 336 338 339 340 338 335 334 332 332
344 347 348 346 344 345 344 343 342 339 337 334 335 329 332 330 333 334 331 325 322 325 329 338 340 344 339 339 340 337 334 331 328 328 330 333 335 335 334 334 333 334 334
341 347 346 347 345 343 342 342 339 336 337 336 335 336 333 331 332 335 333 326 322 325 329 333 337 345 339 340 341 332 335 328 326 325 325 328 330 330 331 332 332 332 332
343 345 345 344 343 342 340 340 335 336 337 338 333 336 336 336 332 330 330 330 329 316 321 330 334 342 345 339 336 341 342 326 325 323 323 324 325 326 326 327 327 327 328
343 344 343 342 339 339 339 339 338 338 337 338 331 329 336 337 337 332 330 328 333 330 322 331 335 340 341 338 337 342 340 329 323 323 323 322 321 322 322 322 323 324 324
342 339 337 336 336 337 339 339 338 336 335 332 330 332 333 335 336 334 331 331 332 333 328 327 337 338 337 337 336 337 338 337 330 322 323 320 318 318 318 319 319 320 322
337 336 335 335 335 335 338 337 333 333 332 326 325 325 328 332 334 336 335 335 335 336 331 328 331 331 332 335 333 331 331 332 330 322 320 318 316 315 313 313 314 316 317
336 336 336 335 334 334 334 333 333 332 330 326 323 323 327 329 330 331 336 334 335 332 335 330 325 326 325 326 324 324 324 322 322 320 317 316 314 314 314 313 313 313 312
336 336 336 334 334 334 333 334 332 333 330 327 324 326 326 329 329 330 331 335 335 333 334 328 322 320 320 322 321 317 317 319 317 319 318 316 316 316 314 313 314 313 309
335 335 335 334 336 334 332 331 333 332 327 324 323 325 326 328 323 326 331 335 333 333 328 324 320 318 316 317 316 318 315 316 316 317 318 319 321 323 322 317 318 313 309
335 335 334 332 334 331 307 310 318 331 327 325 324 325 328 322 320 315 317 317 330 333 326 322 318 316 316 317 318 316 315 313 309 317 314 313 326 325 324 326 308 307 306
337 335 335 333 333 331 304 306 311 333 331 327 325 324 326 329 325 329 313 313 313 312 321 329 319 318 315 317 318 317 320 319 312 315 315 309 315 319 323 315 305 305 304
336 336 334 334 333 325 303 303 311 332 328 323 323 323 321 324 328 326 327 327 330 330 329 329 325 323 320 322 323 323 324 319 317 321 321 310 316 317 321 319 304 304 303
334 335 334 334 330 328 303 304 318 326 323 323 325 323 322 321 307 307 327 323 322 319 308 309 307 306 305 307 316 321 317 315 309 312 319 318 318 318 319 318 315 303 302
334 332 333 333 318 328 301 303 319 325 325 322 321 318 306 313 300 305 324 324 321 320 320 317 314 308 312 311 308 324 321 315 313 310 320 318 319 318 313 318 317 312 311
Wind_Speed
11 12 11 11 11 11 10 10 9 8 9 9 9 8 8 8 7 5 5 12 8 9 11 11 11 13 10 11 11 8 9 16 17 16 15 15 17 17 17 17 17 16 17
11 13 12 12 11 10 10 10 9 9 9 9 9 9 9 8 8 8 7 7 12 10 10 11 11 12 11 11 12 10 9 13 17 17 14 16 18 18 16 17 19 21 18
13 13 12 12 12 10 11 9 8 9 8 8 9 7 8 11 9 9 8 8 8 14 12 11 12 12 10 11 12 10 10 10 15 18 18 19 19 15 14 17 17 18 16
16 14 11 12 11 9 10 9 9 8 8 9 5 6 8 10 10 9 8 8 6 6 12 13 12 11 12 12 13 11 10 9 11 14 16 16 18 19 17 14 15 15 17
16 13 12 11 10 10 10 8 7 9 9 4 8 7 8 10 7 8 10 10 9 8 6 14 9 10 11 11 13 11 10 11 11 10 11 13 16 17 16 12 10 14 15
15 14 11 11 10 10 9 9 11 8 6 7 7 7 6 7 8 9 10 8 10 10 9 6 6 9 10 11 11 11 11 12 11 11 11 12 12 12 10 7 10 13 16
15 14 10 10 11 10 10 11 10 9 6 6 6 8 9 9 11 9 7 8 10 9 9 6 7 2 8 9 9 8 9 11 12 12 10 11 14 14 10 12 15 18 24
13 12 10 11 12 10 12 11 11 6 6 4 5 4 9 4 6 6 7 8 9 6 10 8 7 8 5 9 10 9 9 11 13 11 11 12 19 16 15 15 26 26 25
10 12 13 10 12 10 10 11 10 10 6 6 7 6 4 3 3 5 7 5 5 5 6 5 7 8 7 4 8 9 8 9 10 11 13 15 20 19 20 25 26 26 25
13 14 13 11 11 10 10 9 8 7 7 5 3 7 10 6 2 3 4 7 4 4 6 5 7 8 8 6 4 7 12 11 11 12 13 19 23 23 26 25 23 22 21
12 13 12 12 11 9 9 10 8 9 5 7 7 3 7 7 6 5 4 5 4 3 5 5 5 7 8 6 7 10 10 9 9 12 13 22 25 27 26 26 25 22 21
10 12 13 11 10 8 8 7 8 7 8 5 6 5 7 7 6 4 2 5 5 4 3 4 5 6 8 7 5 12 10 8 10 12 14 20 24 26 26 24 22 22 21
10 12 12 10 9 8 7 7 7 7 7 7 7 6 8 5 5 6 5 5 3 2 2 3 3 5 7 4 9 9 10 9 10 12 14 20 23 23 22 22 22 22 21
10 12 10 9 8 9 7 7 7 6 7 7 9 7 5 7 6 5 5 6 6 4 4 6 4 4 6 7 6 6 11 10 11 12 16 20 21 20 20 20 18 17 17
9 10 10 9 8 8 7 7 6 7 7 8 5 6 6 4 6 6 5 6 6 6 4 4 4 7 6 7 7 8 10 11 12 14 17 19 20 16 16 14 14 15 13
10 10 9 7 7 7 7 7 6 6 7 6 4 7 7 5 5 5 4 6 5 3 7 6 3 8 7 6 4 7 10 12 14 17 20 20 19 15 13 13 14 15 14
10 9 8 8 7 7 6 6 5 6 9 5 5 6 6 7 6 6 6 7 6 4 5 4 5 8 8 10 8 8 9 9 10 19 22 19 16 16 15 15 14 13 13
9 9 8 7 7 6 6 6 6 7 7 10 6 2 3 3 8 8 6 8 6 6 4 12 8 5 6 10 8 10 7 8 10 16 20 21 19 17 16 14 14 13 12
10 9 8 7 5 4 4 5 7 4 8 7 6 5 4 4 5 6 7 7 5 6 7 10 6 4 3 7 9 9 9 12 8 20 21 20 18 16 15 12 11 10 11
10 8 6 5 3 3 3 5 2 6 8 8 7 6 6 5 5 8 7 9 9 8 8 9 7 6 4 6 8 11 10 9 9 10 15 13 12 14 11 10 10 10 9
8 7 6 5 2 1 3 4 2 4 5 6 7 5 6 6 4 4 7 9 10 8 9 9 6 7 7 7 10 8 11 11 9 8 10 8 7 8 8 7 9 9 9
7 7 6 4 5 5 5 5 7 5 6 6 6 6 5 5 6 4 5 3 6 10 11 10 6 10 8 9 10 11 12 12 6 5 8 4 7 8 8 8 9 10 9
7 6 6 6 6 7 5 5 8 6 6 5 4 4 4 4 9 9 7 6 11 10 11 12 13 10 11 13 12 13 14 12 7 5 9 7 2 6 6 6 7 8 8
8 6 7 7 6 6 4 2 2 6 7 5 4 5 5 6 8 11 11 9 10 10 12 10 13 13 13 12 13 13 14 13 10 8 9 6 6 7 7 7 5 7 8
7 6 7 8 7 7 3 3 1 7 6 5 6 4 7 5 8 8 12 11 11 8 11 12 13 15 13 11 12 13 12 13 7 6 5 9 7 7 6 7 7 7 7
7 6 7 8 7 8 2 2 6 5 8 6 7 7 8 8 10 11 12 13 13 12 13 14 12 11 10 12 9 6 12 13 9 6 6 7 9 8 5 6 7 8 8
Wind_Direction
208 204 210 213 203 207 198 211 220 217 219 231 236 236 247 247 265 263 271 156 204 238 243 240 241 233 234 219 214 201 185 181 185 175 175 180 184 188 187 195 194 204 225
207 206 209 210 214 210 207 212 211 218 220 232 227 235 240 250 244 256 252 182 182 218 245 240 237 229 232 220 214 196 190 192 189 189 189 186 190 193 196 203 203 204 210
215 211 211 214 217 210 216 212 214 218 229 230 240 240 244 248 248 242 244 246 190 194 213 232 234 233 232 223 212 207 197 200 202 195 194 188 191 183 222 206 211 202 179
218 201 214 216 216 208 203 207 213 217 229 236 234 243 241 262 247 243 247 254 259 240 192 205 220 236 231 225 215 212 199 200 207 193 195 202 189 177 204 206 207 185 169
205 213 213 215 201 212 206 203 209 227 229 258 247 242 239 243 256 250 235 235 249 259 254 168 196 225 224 212 210 203 196 190 199 207 200 188 176 174 186 188 173 170 157
198 202 213 210 191 206 197 200 218 214 241 239 248 250 253 258 250 241 248 242 245 237 222 238 208 195 185 181 195 200 205 195 188 200 198 180 174 156 140 149 146 155 147
194 199 204 185 196 200 197 202 204 210 222 229 258 248 236 247 247 249 251 236 231 226 226 185 232 302 166 173 182 191 205 195 191 189 195 180 140 133 158 161 140 126 115
188 189 188 184 190 186 196 198 198 200 218 188 260 301 271 194 225 230 233 220 213 236 239 214 194 194 215 181 182 187 199 193 185 185 180 158 146 162 165 155 129 129 128
168 180 187 184 177 196 182 192 197 204 216 213 245 257 284 300 158 187 226 210 221 218 261 274 175 185 202 145 148 161 169 180 178 177 165 148 149 152 143 137 141 144 149
172 181 176 176 178 194 169 189 198 212 227 222 214 234 262 293 282 201 197 202 222 228 209 234 205 175 180 176 189 111 157 165 170 167 159 142 139 147 148 147 143 145 151
169 167 167 169 177 197 176 195 186 210 200 243 219 180 228 243 238 248 196 173 171 199 228 203 211 178 165 179 164 136 149 152 155 153 148 145 146 147 147 149 148 150 147
161 166 170 172 175 189 179 189 207 206 226 234 254 223 209 209 219 210 192 156 160 197 224 192 187 191 162 184 143 135 147 152 149 147 140 145 147 146 149 152 149 150 154
160 161 167 170 178 188 186 190 206 205 202 218 218 228 245 211 225 224 209 167 142 134 192 194 162 180 153 253 139 150 146 155 145 141 147 147 149 152 155 153 156 161 155
155 155 167 174 178 183 189 195 196 208 196 207 212 228 245 239 178 201 205 171 159 148 180 162 165 171 152 166 114 144 151 157 137 141 140 147 148 156 155 154 154 152 150
128 152 159 167 175 187 188 183 219 200 204 207 231 229 229 250 236 223 179 182 222 152 157 186 140 156 145 156 129 169 149 138 134 142 141 141 142 147 151 146 142 136 136
136 151 156 163 170 177 186 202 207 219 214 207 195 243 222 205 224 221 185 193 212 210 143 155 147 141 144 128 96 149 111 130 136 141 137 136 142 136 129 127 128 126 125
144 150 152 158 169 181 192 215 222 225 213 157 190 235 235 210 196 211 202 205 190 180 143 127 134 139 136 128 118 111 137 124 139 137 136 130 126 120 125 124 115 113 117
147 146 153 166 174 187 198 227 225 215 184 167 165 82 252 237 207 195 205 201 165 188 168 148 135 117 102 106 113 104 95 113 128 126 126 121 116 116 112 107 112 123 144
144 150 154 159 176 202 214 232 235 175 163 162 149 170 228 231 206 177 199 186 176 160 152 148 120 90 92 105 94 83 85 86 86 116 107 108 106 108 106 112 129 122 120
149 152 147 138 153 208 238 267 251 207 194 186 161 173 217 208 209 182 192 180 180 156 138 122 119 121 105 106 106 108 98 95 98 97 89 90 107 107 114 115 114 124 117
146 141 132 120 138 59 22 8 114 121 152 160 164 179 218 232 199 170 188 180 164 154 137 137 124 122 126 130 124 119 112 109 91 102 107 111 123 151 136 117 115 124 130
146 144 128 116 87 75 18 349 329 113 118 132 156 177 206 147 143 176 229 357 169 145 144 148 129 140 134 124 133 134 128 127 114 104 108 87 161 149 149 146 83 122 141
151 133 120 98 96 95 32 17 311 102 124 122 133 144 159 132 159 152 108 109 69 81 148 155 143 150 138 147 141 142 143 138 119 132 128 110 164 150 133 109 120 147 149
152 132 119 99 108 86 36 6 40 92 86 92 111 141 142 157 153 146 154 150 153 136 137 148 149 144 141 150 149 145 134 115 114 139 139 133 198 147 163 133 149 154 164
144 146 116 104 111 109 34 333 91 91 91 89 101 141 148 141 128 138 141 120 109 90 55 95 104 116 126 144 149 136 143 136 128 145 224 152 162 159 171 171 160 183 190
161 129 116 102 103 123 82 8 103 122 99 98 93 78 81 129 139 130 136 139 130 132 118 109 104 99 112 112 131 167 152 146 142 147 203 157 174 160 179 188 187 181 201